Preview of NWS' New Version of Forecast
This preview is not operational and should not be used for support decisions.

Regional Weather Roundup (RWR)

Issued by Philadelphia/Mt Holly (PHI)

                            
000
ASUS41 KPHI 172112
RWRPHI

REGIONAL WEATHER ROUNDUP
NATIONAL WEATHER SERVICE MOUNT HOLLY NJ
500 PM EDT TUE SEP 17 2019

NOTE:  "FAIR" INDICATES FEW OR NO CLOUDS BELOW 12,000 FEET WITH NO
SIGNIFICANT WEATHER AND/OR OBSTRUCTIONS TO VISIBILITY.

 * = STATION DOES NOT REPORT PRECIPITATION (E.G. RAIN, SNOW, ETC.) 
        OR FOG.

NJZ015>026-172200-
SOUTHERN NEW JERSEY
  
CITY           SKY/WX    TMP DP  RH WIND       PRES   REMARKS
POMONA         FAIR      73  51  46 E12       30.08F                  
WILDWOOD*      FAIR      73  53  49 E10G17    30.08F                  
MILLVILLE      FAIR      79  45  29 N8        30.07F                  
WRIGHTSTOWN    FAIR      78  45  30 NE7       30.08F                  
MOUNT HOLLY    FAIR      77  46  33 NE7       30.07F                  
TRENTON        FAIR      77  45  32 NE7       30.08F                  

$$
NJZ001>014-172200-
NORTHERN NEW JERSEY
  
CITY           SKY/WX    TMP DP  RH WIND       PRES   REMARKS
SUSSEX         FAIR      76  46  34 SE6       30.09F                  
ANDOVER*         N/A     76  47  35 N5        30.10F                  
MORRISTOWN     SUNNY     75  48  38 NE8       30.10F                  
NEWARK         FAIR      77  38  24 NE9       30.08F                  
TETERBORO      FAIR      77  38  24 NE8       30.08S                  
CALDWELL       FAIR      78  40  25 VRB5      30.10S                  
SOMERVILLE     FAIR      78  39  24 N8        30.07F                  
ALLAIRE*       FAIR      75  41  29 NW10      30.10F                  
TOMS RIVER*    FAIR      73  50  44 E6        30.09F                  

$$
PAZ043-044-047-054-055-060>062-066>071-172200-
EASTERN PENNSYLVANIA
  
CITY           SKY/WX    TMP DP  RH WIND       PRES   REMARKS
PHILADELPHIA   MOSUNNY   79  43  27 NE8       30.08F                  
NORTH PHILA    FAIR      80  47  31 NE5       30.09F                  
BLUE BELL*     FAIR      76  47  36 N3        30.10S                  
DOYLESTOWN     FAIR      80  45  28 N8        30.09F                  
QUAKERTOWN*    SUNNY     77  50  38 CALM      30.10                   
PERKASIE*      FAIR      75  46  35 NE6       30.12S                  
POTTSTOWN      FAIR      76  49  38 VRB5      30.11F                  
LANCASTER      FAIR      78  50  37 VRB6      30.10S                  
COATESVILLE    FAIR      75  48  38 N6        30.12S                  
WEST CHESTER   FAIR      77  43  29 NE8       30.10S                  
READING        FAIR      77  49  37 CALM      30.08F                  
ALLENTOWN      FAIR      80  48  32 CALM      30.09F                  
QN CITY/ALNTWN FAIR      77  50  38 N7        30.10F                  
MOUNT POCONO   FAIR      69  41  36 NW9       30.15S                  
HAZLETON       FAIR      72  43  35 N5        30.18S                  
LEHIGHTON      FAIR      75  43  31 N6        30.11S                  
WILKES BARRE   FAIR      76  42  29 N9        30.13S                  

$$
DEZALL-MDZ008-012-015-019-020-172200-
DELAWARE AND EASTERN MARYLAND
  
CITY           SKY/WX    TMP DP  RH WIND       PRES   REMARKS
WILMINGTON     FAIR      81  50  33 VRB7      30.08F                  
DOVER          FAIR      74  55  50 E8        30.07F                  
CHESWOLD       PTCLDY    77  57  50 SE7       30.07S                  
GEORGETOWN     FAIR      74  55  51 E15       30.09F                  
EASTON         MOSUNNY   79  57  47 NE6       30.11S                  
STEVENSVILLE   FAIR      77  57  50 NW6       30.07F                  
ABERDEEN       MOSUNNY   79  52  38 E7        30.07F                  
PATUXENT       PTSUNNY   77  59  53 NE7       30.06                   
OCEAN CITY     FAIR      72  55  55 E13       30.08F                  
WALLOPS ISLAND FAIR      72  56  57 NE14G24   30.07F                  
CAMBRIDGE      MOSUNNY   77  57  50 E8        30.06F                  
SALISBURY      FAIR      75  54  47 E12       30.08S                  

$$
PAZ001-021-NYZ056-072-MDZ011-DCZ001-172200-
OTHER NEARBY LOCATIONS
  
CITY           SKY/WX    TMP DP  RH WIND       PRES   REMARKS
HARRISBURG     FAIR      81  49  32 N10G17    30.08F                  
STATE COLLEGE  SUNNY     73  45  35 E6        30.15S                  
WILLIAMSPORT   FAIR      77  46  33 N10       30.11F                  
BINGHAMTON     FAIR      68  43  40 NE10G18   30.17S                  
NEW YORK CITY  FAIR      75  39  27 NE10      30.12S                  
BALTIMORE      FAIR      80  57  45 E8        30.07F                  
WASHINGTON DC  PTSUNNY   82  59  45 NE9       30.07F                  

$$